Flag for Finland Weather past 2 weeks in Helsinki, Finland

Now
25 °F

Light snow. Overcast.


Feels Like: 18 °F
Forecast: 32 / 37 °F
Wind: 6 mph from Northeast

Location: Helsinki Malmi Airport

Current Time: Oct 23, 2014 at 7:55:13 AM

Latest Report: Oct 23, 2014 at 7:20 AM


Visibility: N/A

Pressure: 30.48 "Hg

Humidity: 74%

Dew point: 18 °F

Location of HelsinkiLocation

Historic Weather in Helsinki — Graph

°F

Helsinki temperature yesterday

Maximum temperature yesterday: 30 °F (at 12:20 AM)
Minimum temperature yesterday: 25 °F (at 8:20 PM)
Average temperature yesterday: 28 °F

Past Weeks' High & Low Weather Summary

 TemperatureHumidityPressure
High55 °F (Oct 10, 5:20 AM)100% (Oct 9, 4:20 AM)30.45 "Hg (Oct 9, 4:20 AM)
Low19 °F (Oct 18, 7:50 AM)48% (Oct 17, 2:50 PM)29.30 "Hg (Oct 20, 7:50 AM)
Average41 °F86%29.91 "Hg
* Reported Oct 8 6:20 AM — Oct 23 6:20 AM, Helsinki, Weather by CustomWeather, © 2014

Note: Actual official high and low records may vary slightly from our data, if they occured in-between our weather recording intervals... More about our weather records

Advertising

Helsinki weather history for previous 24 hours

 ConditionsComfort  
Time TempWeatherWind HumidityBarometerVisibility
6:20 AM
Oct 23
25 °FOvercast.7 mph74%30.45 "HgN/A
5:50 AM25 °FOvercast.6 mph69%30.45 "HgN/A
5:20 AM25 °FOvercast.8 mph69%30.45 "HgN/A
4:50 AM25 °FOvercast.6 mph69%30.45 "HgN/A
4:20 AM25 °FOvercast.6 mph69%30.45 "HgN/A
3:50 AM25 °FOvercast.6 mph69%30.45 "HgN/A
3:20 AM25 °FOvercast.7 mph69%30.45 "HgN/A
2:50 AM25 °FOvercast.7 mph69%30.45 "HgN/A
2:20 AM25 °FOvercast.7 mph63%30.42 "HgN/A
1:50 AM25 °FOvercast.7 mph63%30.42 "HgN/A
1:20 AM25 °FOvercast.6 mph63%30.42 "HgN/A
12:50 AM25 °FOvercast.7 mph59%30.39 "HgN/A
12:20 AM25 °FPassing clouds.8 mph59%30.39 "HgN/A
11:50 PM
Oct 22
25 °FPassing clouds.7 mph59%30.39 "HgN/A
11:20 PM25 °FPassing clouds.8 mph59%30.36 "HgN/A
10:50 PM25 °FPassing clouds.9 mph54%30.36 "HgN/A
10:20 PM25 °FPassing clouds.8 mph54%30.36 "HgN/A
9:50 PM25 °FPassing clouds.8 mph54%30.33 "HgN/A
9:20 PM25 °FClear.8 mph54%30.33 "Hg10 mi
8:50 PM25 °FPassing clouds.7 mph59%30.33 "HgN/A
8:20 PM25 °FPassing clouds.7 mph59%30.33 "HgN/A
7:50 PM27 °FPassing clouds.6 mph54%30.30 "HgN/A
7:20 PM27 °FPassing clouds.6 mph59%30.30 "HgN/A
6:50 PM27 °FPassing clouds.6 mph59%30.30 "HgN/A
6:20 PM27 °FPassing clouds.5 mph59%30.30 "HgN/A
5:20 PM28 °FPassing clouds.6 mph55%30.27 "HgN/A
4:50 PM30 °FPassing clouds.8 mph51%30.27 "HgN/A
4:20 PM30 °FPassing clouds.7 mph55%30.27 "HgN/A
3:50 PM30 °FPassing clouds.7 mph55%30.27 "HgN/A
3:20 PM30 °FPassing clouds.8 mph55%30.24 "HgN/A
2:50 PM30 °FPassing clouds.8 mph59%30.24 "HgN/A
2:20 PM30 °FPassing clouds.9 mph59%30.21 "HgN/A
1:50 PM30 °FPassing clouds.10 mph59%30.21 "HgN/A
1:20 PM30 °FPassing clouds.12 mph64%30.21 "HgN/A
12:50 PM30 °FPassing clouds.9 mph64%30.18 "HgN/A
12:20 PM30 °FPassing clouds.8 mph64%30.18 "HgN/A
11:50 AM28 °FPassing clouds.9 mph69%30.18 "HgN/A
11:20 AM28 °FScattered clouds.9 mph64%30.18 "HgN/A
10:50 AM27 °FScattered clouds.8 mph69%30.15 "HgN/A
10:20 AM27 °FPartly sunny.9 mph69%30.15 "HgN/A
9:50 AM27 °FPartly sunny.9 mph69%30.15 "HgN/A
9:20 AM27 °FPartly sunny.7 mph69%30.12 "HgN/A
8:50 AM27 °FPassing clouds.7 mph74%30.12 "HgN/A
8:20 AM27 °FPassing clouds.7 mph69%30.12 "HgN/A
7:50 AM28 °FOvercast.8 mph64%30.09 "HgN/A
7:20 AM28 °FPassing clouds.7 mph64%30.09 "HgN/A
Weather by CustomWeather, © 2014

See weather overviewHow to use our weather pages